Zurück zum Katalog

STARLINK-32524

AktivKommunikationVLEO
NORAD 62159·PAYLOAD·🇺🇸 United States

Gestartet Nov 30, 2024 von Cape Canaveral Space Force Station

Loading…

Nächste Überflüge (nächste 24 Stunden)

TLE

AktuellSource: CelesTrak SupGP

Epoche: Sep 14, 2026, 22:21 UTC

1 62159C 24224W   26257.93173611 -.00022525  00000+0 -81587-3 0  2576
2 62159  43.0017 172.8361 0001286 262.8238  39.8405 15.27589745    19

Verfolge STARLINK-32524 in Echtzeit mit AllMySat

Download on the App Store